Theta_e
311 311 311 312 313 313 313 313 313 314 315 317 317 318 320 323 324 325 328 328 326 325 328 336 342 343 344 344 344 343 342 340 340 344 349 351 351 353 353 354 359 363 361 359 360 359 357 357 357 356 357 357 356 357 357 358 359 360 362 362 363 365 366 365 365 364 362 362 361 359 357 355 355 354 352 351 350 351 350 349 348 348 348 349 350 350 351
311 310 310 311 311 311 312 313 313 313 314 315 315 316 319 320 321 323 324 326 328 327 328 337 344 345 343 342 343 343 342 342 342 346 349 350 350 351 351 351 356 366 371 368 366 363 358 357 358 357 357 357 357 358 357 358 359 359 361 363 363 365 366 365 365 363 362 362 361 360 359 356 356 355 355 353 351 351 351 350 348 348 348 349 351 351 353
312 311 311 311 311 311 312 312 312 313 313 314 314 315 317 320 322 323 323 327 329 329 332 341 346 347 344 342 344 343 343 344 344 346 347 348 350 351 352 352 353 358 362 367 373 371 360 357 358 358 357 358 358 357 359 358 359 359 359 361 363 363 365 365 365 364 363 362 361 360 360 359 357 357 355 354 352 352 353 352 350 349 349 349 351 351 352
313 311 311 312 311 311 311 310 312 312 312 313 315 315 318 320 320 322 322 325 329 330 334 343 346 345 344 342 342 343 342 341 342 343 343 345 346 350 353 354 355 355 356 360 367 367 359 356 359 359 359 359 358 358 359 359 359 359 359 360 361 362 364 364 365 364 362 362 361 360 360 359 358 357 355 353 352 351 352 354 352 352 351 350 351 351 352
315 313 312 312 313 314 313 311 312 312 312 313 313 314 318 318 319 321 321 323 330 333 337 343 344 344 346 341 336 339 340 339 338 338 339 340 341 343 346 349 354 356 357 359 359 356 354 354 357 358 360 360 359 358 359 359 358 359 359 358 359 361 362 363 365 365 363 361 361 360 360 359 358 356 356 354 353 352 353 355 355 354 353 351 351 353 354
316 314 313 314 315 315 315 314 313 313 312 313 314 315 317 318 319 319 320 326 334 336 336 339 340 342 345 338 331 333 336 337 335 335 336 335 337 338 339 341 347 350 351 353 354 352 352 351 352 355 358 359 359 359 359 359 358 358 358 357 357 357 357 358 361 363 363 361 361 361 360 360 359 357 356 355 354 353 352 354 355 355 355 353 351 353 355
316 314 315 317 316 316 315 313 313 316 317 319 321 322 322 325 327 324 326 332 335 334 334 334 336 339 338 333 330 329 329 331 333 333 333 333 333 335 335 336 340 343 344 347 350 352 353 353 350 351 355 357 356 356 358 358 358 358 357 356 356 356 356 356 358 361 364 362 361 361 360 360 360 359 357 356 355 354 353 354 356 355 355 355 353 353 355
316 315 316 316 317 315 314 313 316 323 326 328 331 332 330 330 331 330 332 333 332 331 331 331 332 335 336 334 330 327 326 328 329 330 331 331 330 331 333 333 335 338 341 343 346 349 351 355 354 353 354 355 355 355 358 357 358 358 357 356 356 355 355 356 356 360 363 362 362 362 361 362 361 360 358 357 356 356 355 354 356 357 356 356 356 355 355
317 316 316 315 316 315 314 316 321 328 329 329 334 336 333 329 328 329 331 331 329 329 329 330 331 334 340 341 333 327 325 325 326 328 329 329 328 328 330 332 333 335 337 339 341 344 347 353 355 355 355 355 354 355 356 356 357 357 357 356 356 355 355 354 355 360 364 364 362 362 362 361 362 361 360 358 357 357 356 355 356 357 357 357 357 356 355
317 317 317 318 317 315 315 321 327 326 324 325 328 332 332 329 326 327 328 328 328 327 327 329 332 338 350 348 335 328 325 323 324 326 327 327 327 327 328 330 331 333 335 336 338 341 346 351 355 356 357 358 356 355 355 355 355 356 357 357 356 356 355 354 355 359 363 365 362 362 363 362 362 362 361 360 359 357 357 357 355 356 357 358 357 357 355
317 317 318 318 317 316 319 326 327 322 321 323 324 328 332 328 325 326 326 326 326 325 326 328 330 338 348 343 331 327 327 324 323 324 324 325 326 326 327 328 330 331 333 335 337 340 344 348 352 355 356 357 358 355 354 354 355 356 356 357 356 356 356 355 355 358 363 365 363 363 363 362 362 362 363 361 360 358 358 357 356 356 357 357 357 357 356
318 317 318 317 315 317 322 324 322 320 321 322 322 328 331 327 324 325 325 325 325 324 325 326 327 330 334 331 327 326 326 324 323 322 323 324 325 326 327 327 328 330 331 334 336 338 341 344 348 352 355 357 358 358 356 354 354 355 356 356 356 356 356 356 356 358 363 366 364 364 364 363 362 362 363 362 361 359 358 357 357 357 356 357 357 357 357
318 317 317 316 316 320 321 320 318 320 322 321 322 327 329 325 324 325 325 324 324 323 323 325 326 326 326 326 327 325 323 323 322 321 322 324 325 325 326 326 328 329 330 333 334 336 339 342 346 352 357 357 357 359 359 357 354 354 354 355 355 356 356 356 357 359 363 366 365 364 364 363 363 363 363 363 362 361 359 358 357 357 357 358 358 358 358
318 318 317 317 318 320 319 317 318 321 324 324 324 325 326 323 323 325 325 324 323 323 323 323 325 324 322 324 326 324 323 324 322 321 322 323 324 325 325 326 327 328 330 332 333 335 338 342 348 354 357 359 359 359 360 359 358 355 353 354 356 356 357 357 358 360 364 366 365 365 364 365 364 363 364 363 363 362 360 359 357 358 358 358 359 359 359
318 318 318 318 320 320 318 317 319 322 324 324 323 323 324 324 324 324 324 324 323 323 323 322 323 322 322 323 324 324 324 324 322 321 322 323 324 325 325 325 326 328 330 331 333 335 338 343 348 354 356 359 359 360 361 362 362 359 354 352 354 356 357 357 359 362 366 366 367 366 365 365 365 365 365 364 364 362 362 360 358 358 359 360 361 361 362
317 318 319 319 318 318 317 319 320 320 320 322 323 322 323 323 324 324 325 324 323 322 322 321 321 322 322 323 323 323 324 323 321 321 322 323 324 325 325 325 327 328 330 331 332 335 339 344 350 354 358 362 364 366 368 368 366 362 356 351 352 354 355 356 358 363 366 368 367 366 366 366 366 366 365 365 365 364 363 361 360 358 359 361 362 362 363
316 317 318 318 317 317 317 319 320 319 319 321 322 322 321 322 323 324 324 323 323 322 322 322 321 321 322 322 323 323 322 322 322 322 322 323 324 325 325 326 327 328 329 331 332 335 340 347 352 355 360 364 368 370 371 373 371 367 358 352 352 352 354 358 360 362 366 369 369 368 368 367 367 367 367 366 367 366 364 363 361 359 360 361 362 363 363
315 315 316 317 316 315 314 316 318 318 318 318 319 319 319 320 321 321 322 323 322 321 322 322 321 321 322 322 323 323 322 322 321 322 322 323 324 325 326 326 327 328 330 331 332 336 341 347 351 355 360 363 366 368 370 372 373 370 361 355 353 353 354 358 363 366 368 369 370 369 369 369 368 368 368 368 368 367 366 364 362 361 360 360 361 362 363
314 315 316 315 313 312 312 314 315 315 315 315 315 316 317 317 318 319 320 321 321 321 322 322 322 322 322 322 323 324 323 323 322 322 322 323 324 325 325 326 327 329 330 331 334 337 342 346 350 353 358 361 363 367 368 370 372 372 364 356 357 358 358 359 362 367 369 370 371 370 370 370 370 369 369 369 369 368 367 366 364 362 362 361 361 361 362
313 315 315 312 310 310 312 313 312 312 313 313 313 314 315 315 316 317 318 319 320 320 320 321 322 322 322 322 323 324 324 323 322 322 323 323 324 325 326 326 328 330 331 332 335 338 341 344 345 350 356 360 363 366 366 367 370 372 365 358 358 360 362 363 365 368 369 370 371 370 370 371 371 371 370 370 370 369 369 368 366 364 363 362 361 361 361
312 312 312 311 310 311 311 311 310 310 311 312 312 313 314 314 315 316 317 318 319 319 320 321 322 322 322 322 324 325 324 323 322 322 323 323 323 324 326 327 328 330 331 333 336 338 339 340 343 348 356 359 361 362 363 363 366 371 368 361 361 362 363 365 367 368 369 370 370 371 370 370 371 372 372 371 371 369 369 369 368 367 364 364 362 362 361
312 312 311 310 311 311 310 309 309 310 310 310 311 313 313 314 315 316 316 317 318 319 320 321 321 322 323 324 324 325 324 322 322 322 322 322 323 325 326 326 326 328 330 333 335 336 336 337 340 345 352 357 357 359 361 361 364 370 370 366 363 365 366 366 368 368 370 370 370 371 370 370 371 371 370 370 371 370 370 370 369 368 366 365 363 362 362
312 312 311 310 310 309 309 308 309 310 310 310 312 312 313 313 314 314 315 316 317 318 320 321 321 322 323 323 324 325 323 321 321 322 322 322 323 325 326 326 324 325 329 332 334 335 334 335 336 338 345 353 357 357 359 360 362 368 371 368 365 366 368 367 368 369 370 370 370 370 370 370 369 367 365 366 368 370 370 370 370 369 368 366 365 363 363
312 311 311 310 310 310 309 309 309 309 310 311 312 312 312 312 313 313 314 315 316 317 319 320 321 322 322 321 323 324 324 321 321 322 322 321 323 325 326 326 323 324 328 331 332 332 333 333 333 334 339 347 351 352 354 358 361 365 371 371 368 368 369 368 368 368 370 371 371 370 371 370 368 364 362 362 363 364 367 369 370 370 368 366 365 364 363
312 311 310 310 310 311 310 309 308 308 310 311 311 311 311 312 313 313 314 314 315 317 318 319 320 321 321 321 321 322 323 321 321 321 321 320 322 324 327 326 323 323 327 330 329 329 330 331 331 332 335 340 344 345 350 356 359 361 367 371 369 366 366 367 367 367 367 366 363 361 362 365 364 362 362 361 359 359 360 363 365 367 367 366 365 364 364
312 311 310 310 310 310 310 309 308 308 309 310 310 310 311 312 312 313 314 314 315 316 317 318 320 321 321 321 320 321 321 321 320 320 319 320 322 324 327 326 324 323 327 329 327 327 328 329 329 330 332 335 337 339 344 352 356 358 361 365 365 362 362 363 365 365 365 363 359 356 354 354 356 360 362 363 360 357 355 355 357 359 362 363 363 364 365
312 311 310 310 310 310 310 310 310 308 308 309 309 309 310 311 312 313 313 314 315 316 317 319 320 320 321 321 320 321 321 320 320 319 319 320 322 325 327 327 325 324 327 328 327 326 327 327 327 328 329 331 332 336 341 348 353 355 356 358 359 359 360 360 359 359 359 360 359 357 355 353 354 358 362 362 361 358 357 355 355 354 356 358 360 362 364
312 311 311 311 310 310 310 310 310 309 308 308 308 309 310 310 311 311 312 313 315 317 318 319 320 320 320 321 320 321 321 320 319 319 319 320 323 325 326 325 324 325 327 326 325 325 325 325 325 326 327 327 329 333 339 345 350 350 350 352 353 353 353 355 355 354 354 355 354 354 354 354 354 356 359 360 360 359 359 358 357 355 354 356 357 359 362
312 311 311 311 311 311 310 310 309 309 308 307 308 309 309 310 310 310 311 313 315 316 318 319 320 321 321 321 321 321 320 320 319 319 319 320 324 326 325 324 324 326 326 325 324 324 324 323 324 325 325 326 328 332 338 343 346 345 345 347 349 348 350 354 356 355 354 353 353 352 352 353 354 354 354 355 355 356 358 360 358 355 353 354 357 358 359
312 312 311 311 310 310 309 309 308 308 308 307 308 308 308 309 309 310 310 311 313 314 316 317 319 320 321 322 322 321 320 320 319 318 318 321 324 325 324 323 325 326 325 323 322 323 322 322 322 324 324 325 327 332 338 342 342 340 340 342 344 347 350 352 354 353 352 352 352 351 351 353 353 353 353 353 352 352 354 358 356 353 353 355 356 356 355
313 312 311 311 310 309 308 308 308 308 308 308 308 307 308 308 309 309 309 310 311 312 314 316 318 320 321 322 322 321 321 321 319 318 320 324 324 323 322 323 324 325 324 322 321 320 321 320 321 323 324 324 327 333 338 339 337 336 337 338 340 344 349 351 351 350 350 351 352 352 353 353 353 353 353 353 352 351 353 355 355 353 353 352 351 350 352
312 311 311 311 311 309 308 308 308 307 307 307 307 307 308 309 309 309 309 310 311 312 313 315 318 320 322 322 322 322 322 321 320 321 323 323 322 321 322 322 323 324 323 320 318 318 319 319 321 322 323 325 327 332 335 335 334 334 335 336 337 339 343 346 347 348 349 351 352 352 353 352 352 352 352 352 351 351 351 351 350 348 346 345 344 346 350
312 311 311 311 311 310 309 308 307 307 307 307 307 307 308 308 308 308 309 310 311 312 313 315 318 321 321 322 322 322 322 322 323 323 322 321 321 321 321 321 321 322 321 318 317 317 318 319 321 322 323 324 326 329 332 333 333 332 332 333 334 335 336 339 341 343 345 347 348 349 350 350 350 350 350 350 348 346 344 343 341 339 338 339 340 343 347
312 312 311 311 312 311 309 308 308 307 306 306 307 307 308 308 308 309 310 310 311 311 313 315 318 320 321 321 322 323 323 324 324 322 321 320 320 320 319 318 318 319 318 316 315 316 317 319 320 321 322 323 325 327 329 330 331 331 330 330 331 332 332 334 336 337 338 339 341 343 345 345 345 344 343 342 340 338 337 336 335 333 333 333 335 338 341
311 311 311 310 311 310 309 309 308 307 306 306 306 307 307 308 308 309 309 310 310 311 313 316 319 320 321 321 322 323 324 324 322 321 320 319 318 317 316 316 316 317 317 316 315 315 317 319 319 320 320 322 323 325 327 327 327 328 328 327 328 328 329 330 332 333 334 335 336 336 337 337 337 337 336 335 333 332 332 331 331 330 329 329 330 332 334
311 311 311 310 310 309 308 309 308 308 307 306 306 307 307 307 308 308 308 309 309 310 312 315 318 319 319 319 319 320 320 321 321 320 319 317 316 315 315 315 315 316 316 315 314 314 316 317 318 319 319 320 321 323 325 325 325 325 325 325 325 326 326 326 327 328 329 330 331 331 331 331 331 331 331 330 329 329 329 328 328 328 327 327 327 327 326
310 310 310 310 310 309 309 309 308 308 307 307 306 306 306 307 307 308 308 308 309 310 312 314 316 318 317 317 316 316 316 317 319 319 318 316 314 313 313 314 314 315 315 313 313 313 314 316 317 317 317 318 319 320 322 322 322 322 322 323 323 323 323 323 323 323 324 325 326 326 326 327 327 326 326 326 326 326 326 326 325 325 324 324 324 323 322
309 309 309 309 309 309 309 308 308 308 308 307 306 305 306 306 307 307 308 308 308 310 311 312 314 316 316 315 314 314 314 314 315 316 316 315 313 312 312 313 313 313 313 312 312 312 314 314 314 315 315 316 317 318 319 319 319 319 320 320 320 320 321 321 321 321 321 321 322 322 322 322 322 322 321 321 321 322 322 321 321 320 320 320 319 319 319
310 309 309 309 309 309 309 308 308 308 308 307 306 306 306 306 306 306 307 308 308 309 310 311 312 314 314 314 314 313 313 312 313 313 314 313 312 311 311 311 311 311 311 311 310 311 312 312 313 313 314 314 315 316 316 316 316 316 317 317 317 318 318 318 318 319 319 319 319 319 319 319 319 319 318 318 317 317 316 316 315 315 315 314 314 314 313
310 309 309 309 309 309 309 309 308 308 307 307 307 306 305 305 306 306 307 308 308 308 309 311 311 312 312 313 313 313 312 311 311 311 312 311 311 310 310 310 310 310 310 309 310 310 311 311 311 311 312 312 313 313 314 314 314 313 314 314 315 315 315 315 315 315 316 316 316 316 316 316 315 315 315 315 314 314 313 313 312 312 311 311 311 310 310
309 309 309 309 309 309 309 308 309 308 307 307 307 306 306 305 305 306 307 307 307 308 308 310 311 311 311 312 312 312 311 310 310 310 310 310 310 310 309 309 309 309 308 308 309 309 309 309 309 309 310 311 311 311 311 311 311 311 311 312 312 312 312 312 312 312 313 313 313 313 313 313 312 312 312 312 312 311 311 310 310 310 310 309 309 308 308
309 309 309 309 309 309 309 309 309 309 308 307 307 306 306 305 305 305 306 307 307 307 308 308 309 310 310 310 310 310 310 309 309 308 308 308 308 308 308 308 308 308 308 308 307 307 308 308 308 308 308 308 309 309 309 309 309 309 309 309 309 309 309 309 309 309 310 310 310 310 310 310 310 309 309 309 309 308 308 308 308 308 307 307 307 306 306
309 309 309 309 309 309 309 309 309 309 308 308 307 306 306 306 305 305 306 307 307 307 307 308 308 309 309 309 309 309 309 308 308 307 307 306 306 306 307 307 307 307 307 307 307 307 307 307 307 307 307 307 307 307 307 307 307 308 308 308 308 307 307 307 307 307 307 307 307 308 308 307 307 307 307 306 306 306 306 306 306 306 305 305 305 305 304
309 309 309 309 309 309 308 308 308 308 309 308 307 306 306 306 306 305 305 306 307 307 307 307 308 308 308 308 308 308 308 307 307 307 306 306 305 305 305 305 306 306 306 306 306 306 306 306 306 306 306 306 305 305 305 305 306 306 306 306 306 306 306 306 306 306 306 306 306 306 306 306 305 305 305 305 305 305 304 305 305 304 304 304 304 303 303
309 309 308 308 308 308 308 308 308 308 308 308 307 306 306 306 306 305 305 306 306 306 307 307 307 307 307 307 307 306 306 306 306 305 305 305 305 305 305 305 305 305 304 304 305 305 305 305 305 305 305 305 304 304 304 304 304 304 305 305 305 305 305 305 305 305 305 305 305 305 305 305 304 304 304 304 304 304 304 304 304 303 303 303 303 303 303
309 308 309 309 309 308 308 308 308 307 307 308 308 307 306 306 306 305 305 305 305 306 306 306 306 306 305 305 305 305 305 305 304 304 304 304 304 304 304 304 304 303 303 303 303 304 304 304 304 304 304 304 303 303 303 303 303 303 303 303 304 304 304 304 304 304 304 304 304 304 304 304 304 304 304 304 304 303 303 303 303 303 303 303 303 303 303
308 308 309 309 309 308 307 307 307 308 308 308 308 308 307 306 306 305 305 305 305 305 305 305 305 305 304 304 304 304 304 304 303 303 303 303 303 303 303 302 302 302 302 302 302 302 302 302 302 303 303 303 302 302 302 302 302 303 303 303 303 303 303 303 303 303 303 303 303 303 303 303 303 303 303 303 303 303 303 303 302 302 302 302 302 302 302
308 308 308 308 308 307 307 307 308 309 309 308 307 307 307 306 306 305 305 305 304 304 304 304 304 304 304 303 303 303 303 303 303 302 302 302 302 302 302 302 301 301 300 301 301 301 301 301 301 301 302 302 302 302 302 302 302 302 302 302 302 302 302 302 303 302 302 302 302 302 302 301 301 301 301 301 301 301 301 301 301 301 301 301 301 301 301
307 307 307 307 307 307 308 308 309 309 308 307 306 306 307 307 306 306 305 305 305 304 304 304 304 304 304 303 303 303 302 302 302 302 302 301 301 301 301 301 301 300 299 299 300 300 300 300 300 301 301 301 301 301 301 302 301 302 301 301 301 302 302 302 302 302 302 302 301 301 301 301 301 301 301 301 300 300 300 300 300 300 300 300 300 300 300
307 307 307 307 307 307 308 308 308 307 307 306 306 306 306 306 306 307 306 305 305 305 304 304 304 303 303 303 303 303 302 302 302 302 301 301 301 300 300 300 300 299 299 299 299 299 299 299 300 300 300 300 300 300 300 300 301 301 301 301 301 301 301 301 301 301 301 301 301 301 301 301 302 301 301 301 300 300 300 299 299 299 299 299 299 300 300
306 307 307 307 307 307 307 307 306 306 305 305 305 305 306 306 306 306 306 306 305 305 304 304 303 303 302 302 302 302 302 302 302 302 302 301 301 300 299 299 298 298 298 298 298 299 299 299 299 299 299 299 300 300 300 299 299 300 300 300 300 300 300 299 299 300 300 300 301 301 301 301 301 301 301 301 300 300 300 299 299 299 299 299 299 299 299
305 305 305 306 306 307 306 306 305 305 305 305 305 305 306 306 306 306 306 306 305 304 304 304 303 303 303 303 303 303 303 303 302 302 302 302 301 300 300 299 298 297 297 297 298 298 298 299 299 299 299 299 299 299 299 299 298 298 299 299 299 299 299 298 298 298 298 298 298 299 299 299 299 300 300 300 300 300 299 299 299 299 299 299 299 298 298
Wind_Speed
13 13 15 15 13 12 12 15 17 15 13 11 8 7 7 8 5 3 9 14 10 10 12 8 8 9 10 12 13 14 15 16 17 20 20 14 8 9 8 5 3 4 6 9 12 15 20 24 24 25 27 29 30 31 32 33 33 33 34 34 34 34 34 35 38 39 38 38 39 40 41 42 41 40 41 41 40 40 40 41 41 40 38 37 38 38 38
13 14 14 14 14 13 13 15 16 14 12 12 11 9 8 10 9 7 9 12 10 9 10 6 6 6 7 10 12 14 16 18 18 19 20 18 16 16 16 15 12 10 8 5 2 4 11 20 24 25 25 27 29 30 31 32 32 33 34 34 34 33 35 36 37 37 37 37 38 39 40 42 42 41 40 41 40 40 40 41 41 40 38 37 38 39 38
10 12 12 12 12 13 14 15 15 15 13 12 10 9 7 8 9 8 8 10 8 6 7 6 6 7 10 13 15 15 15 17 19 20 20 18 18 17 16 16 15 13 11 10 8 6 2 6 15 21 24 27 29 27 28 30 31 32 32 32 32 32 32 33 35 36 36 36 37 38 40 41 43 43 41 40 40 40 40 41 40 40 39 37 37 39 39
7 9 10 11 11 13 15 15 14 14 14 10 8 8 6 6 9 9 7 7 6 5 6 6 8 12 15 17 16 14 14 16 18 18 18 18 17 15 13 13 15 15 13 10 9 5 4 4 5 8 12 19 26 28 28 29 31 31 30 31 32 33 31 30 32 35 36 37 37 38 40 41 42 43 42 40 41 40 39 40 40 39 39 38 36 37 39
7 10 11 11 10 9 10 9 9 11 12 11 9 9 9 9 8 6 5 4 5 10 10 10 12 14 15 15 15 13 12 14 17 17 17 17 17 15 14 13 12 12 10 9 11 13 14 9 4 5 8 13 20 24 24 23 24 25 23 22 22 25 27 28 31 36 36 36 38 38 39 41 41 42 42 40 41 41 39 40 40 39 40 39 36 35 38
5 11 12 11 8 6 6 5 5 8 12 12 10 9 9 10 8 8 7 4 9 12 11 10 11 10 10 12 14 14 13 12 14 16 17 16 16 16 16 14 12 10 11 10 11 13 17 17 12 7 11 15 12 10 12 15 21 23 19 14 11 10 12 15 22 32 37 36 38 39 38 39 39 40 41 41 41 42 40 39 40 40 39 40 38 35 36
4 8 9 7 6 5 7 8 7 7 8 8 7 6 5 7 8 7 5 6 9 8 8 9 9 6 9 13 15 16 15 13 13 13 14 16 16 16 16 15 12 9 12 14 12 9 10 13 13 14 17 15 10 9 10 14 20 26 26 26 26 21 18 19 23 29 37 39 38 38 37 37 38 39 41 41 40 40 39 39 40 41 40 39 39 36 34
2 3 4 5 6 7 11 12 7 5 6 8 9 6 6 12 13 11 9 8 9 9 9 8 9 6 4 9 12 15 15 14 13 13 13 15 15 14 14 14 14 14 15 17 18 17 16 14 11 13 17 15 11 16 22 23 23 27 29 32 36 36 35 36 34 33 37 40 39 38 38 37 37 39 40 41 40 39 38 37 38 39 39 39 40 39 35
3 3 4 5 8 10 11 9 5 5 5 6 6 3 4 11 13 11 9 9 10 11 9 9 9 8 3 4 8 13 15 14 13 12 12 14 15 15 16 17 18 21 22 23 23 23 22 21 17 14 14 14 14 21 29 31 29 31 32 33 38 40 40 40 38 36 39 41 40 39 38 38 38 39 40 41 41 38 37 36 36 37 39 38 39 40 38
3 3 3 3 5 7 7 4 5 6 6 7 6 4 1 7 12 11 10 10 11 10 10 10 10 7 2 3 5 10 13 13 12 12 11 14 17 17 20 22 22 24 25 25 26 25 24 23 22 20 16 13 11 15 26 31 30 30 32 35 38 41 42 41 38 36 38 42 42 40 39 40 40 40 39 40 41 39 37 36 36 36 37 37 37 39 40
3 3 3 2 4 6 6 5 8 8 7 7 8 5 2 5 10 11 10 9 10 10 9 10 9 5 3 3 5 9 11 11 12 12 12 14 18 20 21 21 22 24 27 26 25 24 23 24 24 24 22 19 16 13 17 26 29 29 32 35 39 43 45 43 38 34 35 39 42 41 41 41 40 39 39 38 39 40 38 36 35 35 35 36 36 36 38
5 4 4 3 4 4 5 9 12 12 9 6 4 3 2 5 8 9 9 9 9 9 8 8 7 6 3 4 7 10 11 10 11 12 12 13 17 21 23 23 23 24 25 24 24 23 23 26 28 28 26 22 19 18 17 20 25 29 33 37 40 43 43 41 37 34 34 38 41 42 42 42 40 39 38 37 37 38 38 35 33 33 34 35 35 35 36
6 6 6 4 3 1 5 10 13 12 9 3 1 2 2 4 6 6 6 7 7 7 7 6 5 4 4 6 7 9 10 11 11 12 14 15 16 20 23 25 26 24 22 22 23 23 24 27 29 28 27 23 20 19 20 21 24 28 33 37 40 40 40 39 38 35 36 39 42 43 42 41 39 38 37 37 37 38 38 36 33 32 32 34 34 34 34
4 5 5 4 3 1 4 11 12 8 4 1 2 3 3 4 6 6 5 5 5 4 5 4 3 4 6 7 8 7 9 10 10 12 14 15 16 19 22 24 25 23 21 22 24 24 26 29 28 27 25 24 23 20 18 21 27 31 30 31 37 41 39 39 39 37 37 40 41 41 40 39 38 38 37 37 37 37 37 36 35 33 32 32 32 32 33
2 3 4 4 3 0 6 10 9 5 3 2 4 6 5 5 6 6 5 5 5 4 5 4 4 5 6 8 8 7 7 8 9 11 13 14 15 19 22 23 24 23 21 21 23 25 27 28 27 27 26 26 27 25 22 24 30 34 33 30 33 38 39 38 38 38 38 40 40 38 38 38 38 37 36 36 36 36 36 36 35 34 32 31 31 31 31
0 2 2 1 2 3 5 5 3 4 5 5 5 6 6 5 5 5 4 5 5 6 6 6 5 5 5 7 8 6 6 8 9 9 12 14 16 19 22 24 25 25 22 21 24 26 28 28 28 27 25 25 26 25 26 30 31 32 36 34 32 34 37 38 38 38 38 39 40 38 37 38 37 36 36 36 35 35 36 35 34 33 32 31 30 29 29
2 4 3 2 2 3 3 2 4 6 8 6 5 6 6 6 5 4 4 5 5 6 6 6 6 5 5 7 8 6 6 8 8 9 11 14 17 20 22 25 26 25 24 24 25 26 27 28 28 27 25 23 24 26 29 32 32 31 34 37 36 35 36 37 38 39 38 39 40 39 37 37 37 36 35 35 34 34 35 35 33 32 31 30 29 28 28
3 4 4 2 3 5 7 6 3 3 5 6 6 7 6 6 7 6 5 6 6 6 6 6 6 5 5 7 7 5 6 8 9 9 11 14 19 21 22 26 27 25 24 25 25 25 27 27 27 27 26 24 24 28 32 35 34 31 32 36 37 38 38 37 37 37 37 37 38 39 38 38 38 37 36 35 34 32 32 33 33 32 31 30 30 28 28
4 3 0 4 6 9 9 6 4 6 6 7 7 7 7 8 9 8 8 8 8 7 7 7 7 6 5 8 7 5 4 7 9 9 9 12 18 21 22 25 26 23 22 23 23 25 27 27 27 27 26 26 26 29 32 35 36 31 32 35 35 36 37 37 37 37 37 37 37 36 36 36 35 35 35 35 33 32 32 32 32 31 30 30 30 29 28
5 4 2 7 10 10 6 4 6 7 8 9 9 9 8 9 10 10 10 9 8 8 8 7 8 6 5 7 7 5 4 5 7 9 9 11 15 20 24 27 25 22 22 23 23 24 26 27 27 28 27 27 28 29 30 35 36 29 32 36 34 35 36 35 37 38 37 38 37 35 35 34 33 33 33 33 33 33 34 35 33 32 32 32 31 32 31
5 5 5 10 11 8 5 7 9 9 8 10 12 11 10 10 10 10 11 10 9 9 9 9 8 7 6 6 6 5 5 5 6 9 12 15 16 17 22 25 25 23 23 23 23 24 26 28 28 27 27 28 28 29 30 35 35 25 32 36 34 35 37 35 36 37 37 37 37 34 33 32 30 30 32 33 33 33 34 36 36 35 34 34 35 35 34
3 3 5 8 8 7 7 10 12 11 10 12 12 11 10 10 11 10 11 12 11 11 11 11 9 7 7 5 4 4 5 6 7 10 14 16 17 18 20 23 24 25 25 24 24 24 25 28 29 28 28 28 29 30 30 32 34 24 27 34 31 32 34 33 34 35 33 33 34 33 31 31 29 28 29 31 32 32 32 35 38 38 36 35 36 37 36
3 4 5 5 6 8 10 12 13 12 10 11 12 11 10 10 11 11 11 12 12 11 11 13 12 9 6 5 4 4 5 7 9 12 15 15 16 18 20 20 24 27 26 25 24 24 25 27 29 31 31 29 27 28 27 27 31 25 19 28 27 28 31 31 33 34 32 31 32 31 29 29 28 27 26 27 29 31 31 33 36 38 38 36 36 37 37
4 3 3 4 6 8 10 12 14 12 10 9 10 11 10 9 10 12 11 12 13 12 10 12 15 13 9 7 7 6 6 7 9 13 16 18 17 17 17 18 22 25 25 23 24 25 26 27 28 31 32 28 26 28 28 25 27 24 13 16 17 19 23 26 27 29 27 26 27 28 27 28 29 28 26 24 25 26 27 30 34 37 38 36 35 36 38
4 2 2 4 6 7 8 9 11 11 11 11 11 11 11 12 12 13 12 11 12 13 11 11 15 17 14 10 9 7 5 6 9 12 16 18 18 16 15 17 21 24 23 22 24 26 26 28 30 31 30 28 28 31 30 25 24 22 12 8 7 6 9 14 18 19 18 16 15 14 15 17 23 28 29 25 22 21 20 22 27 33 36 36 34 33 35
4 3 3 5 5 5 5 7 8 10 13 14 12 11 13 15 16 16 15 13 15 17 15 12 15 18 17 13 11 8 6 6 9 12 14 15 16 16 15 17 20 24 23 22 24 26 26 28 30 29 28 28 31 34 31 25 21 19 12 5 5 6 7 12 19 23 24 24 23 20 16 13 13 20 27 27 25 23 20 17 19 23 27 30 30 30 31
4 3 3 4 4 4 5 6 7 10 12 13 12 11 14 16 17 16 16 16 18 19 19 18 19 19 17 15 13 9 6 6 9 11 13 14 14 15 16 17 21 23 23 22 23 25 25 27 29 28 27 30 34 35 31 24 18 15 12 9 6 7 7 9 13 19 23 28 33 34 31 25 19 19 23 27 29 29 27 23 20 18 18 20 23 24 26
3 4 3 2 3 5 6 6 8 9 11 13 13 13 14 15 14 13 13 14 14 15 16 18 19 16 13 13 11 7 6 6 8 10 12 14 14 14 15 17 20 22 20 20 22 23 25 27 28 27 29 35 39 37 31 23 14 10 10 10 9 7 6 5 6 9 14 20 25 28 30 30 25 21 21 24 27 30 29 26 24 22 19 18 19 19 20
3 4 4 4 4 5 6 6 7 8 10 13 14 14 13 12 11 10 11 11 11 11 12 14 15 14 13 12 9 6 6 7 8 10 13 14 13 13 14 17 19 19 18 20 23 24 25 26 26 27 34 40 42 38 30 19 12 11 11 9 7 5 11 14 14 14 16 18 19 21 24 25 24 22 22 23 23 24 25 25 25 25 23 22 20 18 17
4 4 4 4 4 3 4 5 6 7 9 11 12 12 11 11 10 10 10 10 10 10 11 12 13 14 13 12 11 10 10 10 11 13 14 12 10 11 14 16 17 15 15 21 24 24 25 26 26 30 38 42 40 35 26 16 12 15 15 14 12 4 8 16 17 17 18 18 17 18 20 21 22 25 25 24 22 23 23 24 26 25 24 23 21 20 19
3 5 5 5 3 1 2 4 5 6 7 8 10 11 11 11 11 11 11 10 9 10 12 13 12 12 13 12 13 14 14 13 13 13 11 7 8 11 14 15 14 11 13 19 23 23 25 27 29 33 38 40 38 33 25 17 15 18 18 16 15 11 7 10 12 13 17 20 19 20 21 22 23 24 24 22 20 20 19 21 24 23 21 20 18 17 18
2 2 3 3 2 1 1 3 4 6 7 8 9 10 11 10 10 10 10 10 11 11 13 13 12 11 12 11 9 10 12 13 12 8 4 6 9 13 14 15 13 11 12 17 22 23 24 27 30 34 37 38 38 35 28 20 18 20 20 19 18 16 11 10 11 13 17 21 20 20 21 22 21 20 21 22 23 21 19 20 22 20 19 19 17 15 16
3 1 0 1 2 1 2 2 3 5 7 7 8 8 9 9 9 9 10 11 12 12 12 11 11 11 10 8 7 7 10 11 7 1 7 9 11 13 15 15 13 10 10 16 21 23 24 25 29 32 35 35 37 36 31 24 20 22 22 22 23 22 18 15 15 14 14 16 18 20 21 23 21 17 18 22 26 26 24 23 24 24 22 21 19 15 13
0 1 1 2 3 1 1 2 3 4 6 6 7 8 9 10 10 10 12 13 12 12 12 12 12 11 8 5 6 7 6 4 2 5 8 9 12 14 15 16 14 11 9 15 22 25 25 25 27 30 31 32 34 36 33 27 24 23 23 24 26 26 24 22 21 20 20 22 23 23 23 25 24 22 21 21 23 25 27 27 27 27 26 25 24 22 19
3 4 3 2 5 5 1 1 2 4 6 6 7 8 10 13 13 13 15 15 13 14 14 13 8 5 4 7 8 7 4 5 7 7 9 12 14 16 16 17 17 15 12 16 23 26 26 25 25 26 28 30 33 34 31 27 25 24 23 25 27 27 27 26 25 22 23 27 28 27 25 26 26 25 25 24 23 24 27 28 28 29 29 28 29 30 29
6 4 3 3 5 7 4 0 3 4 5 6 7 8 12 15 16 16 17 17 15 15 17 15 10 8 10 11 11 10 8 7 8 10 13 15 16 17 17 17 18 17 15 18 25 27 26 25 24 24 25 28 30 30 28 26 24 24 24 26 28 28 28 29 28 25 25 29 31 29 27 29 31 29 25 23 25 27 29 29 29 30 30 29 30 32 32
7 5 3 4 4 7 7 3 2 4 5 7 10 11 13 16 17 17 19 20 19 20 21 18 12 9 10 12 13 13 14 14 12 12 15 17 18 19 19 18 18 17 15 17 23 26 25 23 22 22 23 25 26 26 26 24 24 24 25 26 27 27 28 30 29 28 28 31 34 33 31 31 33 33 29 26 26 28 31 31 31 32 31 31 31 32 32
6 6 5 6 5 4 7 7 3 5 6 7 10 13 14 16 18 18 19 21 23 22 21 19 14 9 9 13 16 18 19 19 19 17 16 17 17 17 17 17 17 17 15 17 21 23 22 21 20 20 22 23 24 24 24 24 25 26 26 25 25 26 27 29 28 28 28 30 33 35 34 31 31 32 33 32 29 29 30 32 32 33 33 33 32 32 32
3 5 6 5 6 6 6 7 5 4 6 6 8 12 14 17 19 20 20 22 23 22 20 18 16 12 10 13 15 18 19 20 21 19 17 16 16 15 15 16 18 17 17 19 22 22 21 21 21 21 21 23 23 23 23 24 26 27 26 26 26 26 27 27 28 28 28 29 30 31 33 32 31 31 33 33 32 31 32 33 34 34 35 34 34 34 34
1 4 7 5 4 5 6 6 6 5 5 6 8 11 14 16 18 19 20 22 24 24 21 18 15 13 12 13 14 17 19 21 21 20 17 16 15 14 13 15 18 20 19 21 23 23 23 23 23 23 23 23 23 23 23 24 25 26 26 25 26 26 27 27 27 27 27 28 28 28 28 30 31 32 32 33 32 32 33 33 34 34 35 35 35 36 37
2 7 8 5 5 6 7 6 5 7 7 6 7 10 13 16 17 18 19 20 22 24 23 20 16 15 15 16 16 17 19 20 21 21 19 16 14 12 10 13 18 20 21 22 24 24 24 26 26 25 24 24 22 22 23 25 25 25 24 25 26 27 27 27 27 26 26 26 26 25 25 27 29 30 31 32 31 32 33 34 34 33 33 34 34 35 36
7 10 7 5 6 8 9 8 6 6 8 7 7 9 12 15 17 17 18 19 21 22 23 21 19 18 19 19 19 18 18 19 20 21 21 20 16 12 9 12 18 20 20 22 25 26 26 27 28 27 26 25 23 23 25 26 24 23 22 23 25 27 27 27 27 26 25 25 26 25 26 28 28 28 29 30 30 31 32 33 33 32 32 33 33 33 33
10 10 6 5 7 9 8 7 7 6 7 9 8 9 11 14 16 18 18 19 20 21 21 21 20 21 22 21 20 18 18 17 17 18 19 21 21 18 14 14 18 19 19 20 24 26 27 27 27 27 26 26 25 25 27 28 25 23 22 22 23 25 27 28 28 27 26 26 26 26 27 29 29 29 29 30 30 31 31 31 31 31 31 31 32 33 33
12 9 6 6 8 7 6 6 7 7 5 9 10 10 11 13 15 17 19 19 20 21 21 20 20 21 22 21 19 17 16 16 16 15 14 14 16 19 18 17 17 19 19 20 21 24 26 27 26 26 27 27 26 27 28 28 27 26 25 25 25 26 26 27 28 28 28 28 27 27 28 30 30 30 31 31 31 31 31 30 29 29 30 31 31 31 30
12 9 7 7 7 7 7 7 7 7 6 8 12 12 12 13 14 17 19 20 20 21 21 21 21 22 23 22 19 17 17 17 17 16 14 11 11 14 17 18 18 20 23 24 24 25 26 27 27 27 27 27 28 29 29 28 27 28 28 28 28 29 28 28 28 29 28 28 29 29 29 30 31 31 32 32 32 32 31 30 30 30 30 31 31 30 29
12 9 8 7 8 9 9 7 7 8 9 8 9 11 12 12 14 16 18 20 20 21 22 22 22 23 24 24 22 19 18 19 21 21 20 17 15 15 17 18 19 21 25 28 29 28 27 28 28 28 27 28 29 31 30 29 28 29 30 30 30 30 30 30 30 30 29 29 29 29 29 30 30 30 30 31 32 32 33 33 32 32 32 33 33 33 32
11 9 8 9 10 10 8 7 7 9 10 8 5 8 12 13 13 15 17 20 21 22 23 23 23 23 25 26 25 22 19 17 19 22 23 21 19 19 19 19 20 22 25 28 29 30 30 30 30 29 27 27 30 31 30 29 29 30 30 30 31 31 31 31 31 31 31 31 31 31 31 32 32 31 31 31 31 32 32 32 31 31 32 33 34 34 34
12 10 10 11 11 10 8 8 8 8 8 9 7 7 12 14 14 15 17 19 21 22 23 24 23 23 24 26 27 26 22 18 16 18 21 22 21 21 21 22 22 23 24 26 28 30 31 31 31 30 29 28 29 29 29 29 29 29 29 29 29 29 29 29 30 31 32 33 34 34 34 34 34 34 33 33 33 32 33 33 32 32 32 33 34 34 34
14 14 14 13 11 8 6 6 6 6 5 8 9 8 11 14 14 14 15 16 18 19 20 21 22 23 23 23 24 24 23 21 18 18 21 23 23 22 22 23 23 24 25 26 27 29 29 30 30 30 29 30 29 28 27 27 28 28 28 28 27 27 27 27 27 28 29 30 31 32 33 34 34 34 34 34 34 33 33 33 32 32 32 33 33 33 33
15 15 13 11 8 6 5 5 5 5 5 7 8 8 11 13 12 11 13 14 15 15 16 18 20 21 22 22 22 21 21 21 20 20 21 23 24 24 24 24 24 25 27 28 28 28 29 29 29 29 29 29 29 29 28 27 26 25 25 25 25 26 26 26 25 25 26 26 26 26 26 27 28 29 29 29 29 30 30 30 30 31 32 32 32 32 32
14 14 13 12 10 8 7 7 6 5 6 7 7 7 11 14 13 12 12 13 13 13 13 14 17 18 19 19 19 18 17 18 19 18 19 20 22 24 25 26 26 26 28 29 28 28 28 28 28 29 29 29 28 27 27 28 27 27 26 26 26 26 26 26 26 27 28 27 27 26 26 26 26 26 26 26 26 26 27 27 28 29 30 30 30 30 29
13 12 12 13 12 11 9 8 6 7 8 8 8 9 12 15 13 13 12 12 13 13 12 11 12 13 14 14 14 14 14 15 17 17 17 18 19 20 22 24 26 27 28 28 28 27 27 27 27 28 28 28 28 27 27 27 27 27 28 28 28 28 27 27 27 27 28 28 29 29 29 29 29 29 29 28 28 29 28 28 28 27 27 27 27 27 27
Wind_Direction
277 278 281 287 290 295 303 301 299 307 318 319 321 323 320 317 305 288 315 321 320 308 310 338 24 30 40 37 22 12 10 6 5 24 48 72 96 97 91 75 86 132 161 180 184 183 182 183 186 190 192 193 195 196 197 198 198 199 199 200 201 199 199 200 202 204 205 206 206 206 205 205 205 205 206 206 207 208 209 210 210 210 210 210 209 209 211
280 279 277 281 287 291 294 291 291 299 308 309 310 308 306 304 292 280 293 298 297 306 319 356 30 19 34 43 31 16 11 12 14 26 43 58 60 52 45 38 39 45 46 46 72 189 191 186 185 188 190 192 195 198 199 199 200 200 199 201 203 202 203 203 203 204 205 205 206 206 205 205 205 205 206 206 206 207 208 209 210 210 210 210 209 208 208
286 284 277 273 277 280 278 280 287 293 294 292 291 291 296 297 289 287 297 296 296 324 348 17 43 30 31 40 37 25 16 16 21 26 31 42 57 56 39 28 26 27 29 32 39 36 338 211 191 189 191 192 193 195 199 200 202 203 201 201 205 207 208 207 204 202 203 204 205 206 206 205 205 205 205 205 206 206 207 208 209 209 209 209 208 207 207
292 296 289 280 280 279 270 266 269 277 282 283 283 287 288 285 292 309 319 303 299 340 4 19 36 38 37 40 38 28 20 18 20 24 22 23 39 55 53 41 25 12 5 8 14 8 349 28 107 158 184 193 195 196 200 202 202 203 203 204 207 210 212 210 206 203 203 203 205 208 208 207 206 205 205 205 205 205 206 206 207 207 208 209 209 207 206
297 298 294 296 302 290 270 261 257 261 269 274 277 279 275 273 284 302 299 289 334 2 18 30 34 38 41 43 41 31 19 17 15 17 18 16 19 26 37 45 32 3 346 3 10 348 330 342 40 115 153 180 195 197 196 196 194 196 202 205 210 215 218 216 210 205 203 204 205 208 210 209 207 206 205 204 204 205 205 206 205 206 207 208 209 207 205
291 300 305 307 299 276 273 289 282 269 269 268 267 270 276 278 271 264 273 343 25 22 25 26 26 42 57 54 51 41 26 18 13 8 9 10 10 11 15 24 27 3 341 354 20 3 330 316 309 275 204 184 173 164 170 181 184 185 189 196 213 236 249 251 232 211 204 205 206 208 210 210 208 207 206 206 205 204 204 204 204 205 205 207 208 208 206
273 297 304 293 269 261 283 293 288 284 292 308 312 307 332 351 337 318 333 28 41 30 21 10 1 30 72 68 58 47 35 25 12 3 2 2 3 4 2 3 6 357 339 339 354 359 322 293 277 265 241 210 161 145 188 205 196 191 192 197 206 216 226 240 244 225 209 205 206 208 209 209 209 208 208 207 206 205 204 204 204 204 204 205 207 208 207
260 275 266 263 275 293 293 292 307 343 352 7 0 343 23 31 17 12 25 40 38 25 17 4 343 339 54 75 61 47 41 32 14 3 359 356 355 356 354 352 347 339 337 340 341 339 329 309 278 267 260 240 195 189 213 227 215 200 198 202 205 209 211 213 221 224 214 206 205 206 207 208 209 209 209 209 208 206 205 204 204 205 205 205 206 208 209
216 243 256 277 293 296 288 290 339 15 357 7 6 324 21 27 16 11 20 31 32 22 11 358 334 316 322 63 45 34 35 32 17 6 359 350 348 348 345 340 337 335 336 338 334 326 321 315 304 292 277 253 219 202 209 222 220 205 201 206 207 209 212 212 213 216 212 206 203 204 205 206 209 210 210 210 209 207 205 205 204 204 204 205 206 207 209
193 216 252 294 291 280 273 290 8 8 346 350 343 293 313 15 6 3 11 24 28 19 6 354 335 316 336 42 21 12 17 22 14 6 0 350 343 342 341 337 336 335 333 331 326 319 316 314 310 306 300 285 258 212 198 205 213 208 204 208 211 212 216 218 216 213 210 206 203 203 203 206 209 210 210 210 209 208 207 205 205 205 204 204 205 207 208
194 193 217 220 238 256 279 340 359 347 336 344 336 301 275 355 354 356 2 14 26 23 9 359 356 4 22 8 353 352 358 12 12 1 355 348 340 338 337 335 333 331 328 325 323 322 319 316 314 312 306 293 279 252 206 195 201 206 207 209 212 216 219 221 219 215 212 207 204 202 204 206 208 209 210 210 209 209 209 208 207 206 204 204 204 206 208
219 219 230 235 238 266 336 353 339 321 320 344 340 285 275 337 339 348 359 5 19 24 12 8 25 38 13 330 330 338 348 5 9 359 352 345 339 336 335 333 331 328 326 325 324 323 317 312 312 312 307 292 274 263 242 213 203 207 212 213 215 218 221 222 221 219 216 211 206 204 205 206 207 208 209 209 209 209 210 210 208 206 205 204 205 206 208
232 227 229 248 256 298 352 332 317 312 318 336 304 267 279 305 311 328 355 2 13 25 18 18 33 22 344 322 319 332 352 358 353 351 349 340 337 335 330 328 329 327 325 324 319 314 312 311 309 309 306 296 279 263 251 238 228 225 222 219 218 219 220 220 219 220 218 212 208 206 206 205 205 207 208 208 208 208 209 209 209 208 205 205 206 207 208
242 227 233 262 251 150 345 322 319 333 342 263 246 303 281 268 298 323 346 355 8 21 15 16 25 349 330 323 322 338 359 352 340 342 343 339 338 336 328 325 327 327 325 323 319 313 312 313 311 310 309 305 296 286 266 250 247 245 237 224 217 216 217 217 217 218 217 212 208 206 205 203 203 204 206 207 207 207 207 208 208 208 206 204 205 206 207
241 219 225 243 242 32 13 351 345 5 8 301 303 311 292 283 314 328 333 340 351 358 351 354 1 344 328 323 326 340 354 345 336 337 337 336 337 334 328 325 326 328 326 321 317 314 311 310 308 307 305 301 297 293 281 271 265 255 245 232 218 212 211 212 213 214 213 210 206 205 204 203 202 202 203 205 206 206 206 206 208 208 207 204 202 203 204
319 231 216 214 281 334 11 12 326 294 300 304 306 306 305 311 321 323 328 333 337 340 337 336 337 335 327 318 319 332 346 339 334 333 333 334 336 332 328 324 323 326 327 322 316 312 309 308 306 303 298 295 293 288 282 283 281 264 245 234 224 215 210 210 212 211 209 206 204 203 202 201 200 200 201 203 205 205 205 205 206 208 208 205 202 201 202
280 261 267 307 331 320 309 258 242 274 294 304 305 303 309 315 315 320 325 319 319 323 323 323 324 323 319 315 316 335 346 331 326 331 331 331 333 330 328 327 325 325 325 322 317 311 309 309 307 303 301 297 292 291 289 288 286 271 247 231 224 219 215 212 211 209 206 203 202 202 201 199 198 198 199 201 203 204 204 204 205 207 207 206 203 202 202
301 269 271 316 344 329 312 296 286 310 319 328 331 325 323 321 317 318 314 305 308 314 311 310 308 304 309 315 315 335 342 323 320 327 327 329 332 330 328 328 325 323 324 323 317 311 310 311 308 303 302 298 293 294 296 295 292 276 247 227 221 219 216 212 208 204 201 199 199 199 198 198 198 197 198 199 202 203 202 204 206 206 206 206 205 204 204
323 278 1 28 348 321 312 317 348 353 345 344 340 328 320 317 314 314 313 309 307 304 298 294 292 295 313 317 313 322 331 319 318 320 322 331 332 327 327 326 321 319 324 324 316 312 311 312 309 305 301 299 298 297 298 301 299 278 242 222 216 214 212 209 204 199 196 195 195 196 196 196 197 198 199 200 201 202 203 204 206 206 206 206 206 205 205
292 266 345 7 335 309 304 352 0 345 339 338 330 319 313 312 310 308 309 310 308 304 299 293 292 296 304 301 301 311 319 311 312 312 315 326 328 325 327 328 325 325 326 322 317 316 315 313 310 305 300 299 300 301 304 310 308 278 234 219 215 209 205 203 198 196 195 193 192 192 194 194 196 197 198 201 203 205 206 204 204 205 205 205 206 206 206
278 270 336 353 335 310 319 349 336 325 328 327 318 311 310 308 306 307 308 307 306 304 302 295 289 286 282 280 289 305 309 304 304 306 313 321 325 326 327 328 330 331 328 324 322 322 320 317 313 307 303 301 301 303 307 316 315 279 228 218 217 210 203 198 194 194 194 192 190 191 191 192 195 197 199 202 206 210 211 210 208 208 208 207 208 207 206
279 293 340 346 328 302 307 319 316 316 321 314 306 306 311 311 310 310 306 302 301 301 302 299 291 280 275 274 282 293 295 295 299 306 313 319 322 325 326 330 335 337 335 330 327 326 327 328 325 319 313 307 305 306 307 314 318 294 230 212 212 207 200 196 193 191 191 190 189 189 189 190 192 195 198 202 206 209 212 214 214 213 212 213 212 209 208
269 298 321 327 308 291 295 306 310 312 310 303 300 304 308 306 305 304 302 302 303 300 298 297 293 286 277 268 264 268 276 287 302 311 313 314 318 321 324 332 339 340 339 337 332 330 334 335 331 326 321 314 311 313 312 312 318 307 244 209 205 201 196 194 191 189 188 188 188 187 187 190 192 191 191 196 203 207 210 212 214 215 215 216 216 214 212
259 282 306 303 289 287 294 306 309 304 299 298 301 304 303 299 298 299 298 298 298 296 294 294 292 288 279 264 255 256 267 285 306 314 311 312 316 317 321 335 342 339 338 338 334 333 335 337 336 331 324 320 322 326 323 317 316 312 271 217 210 204 196 193 190 187 185 184 185 186 186 187 190 190 188 189 196 204 209 210 210 212 214 215 216 217 216
241 246 266 274 279 287 299 308 308 307 310 311 307 302 301 299 296 295 292 289 289 290 291 291 288 282 273 262 255 257 264 286 303 308 307 311 317 318 323 338 342 337 334 335 336 337 337 338 341 336 325 323 330 333 329 321 314 310 292 228 208 194 176 171 170 171 172 169 173 188 199 195 189 187 187 188 190 193 199 204 204 205 209 212 214 214 214
217 225 263 268 268 279 301 316 321 322 322 318 310 303 302 300 297 295 293 290 289 287 283 280 279 275 269 263 259 256 257 274 291 299 301 306 314 319 326 335 336 334 335 337 338 340 342 343 344 338 326 325 333 336 334 325 311 303 296 249 179 162 165 171 172 173 173 171 174 187 207 228 223 201 191 190 190 185 181 183 188 194 200 205 209 210 210
201 202 254 279 285 292 308 321 322 320 321 320 317 312 308 304 299 296 292 287 285 284 281 276 271 265 262 263 260 246 237 263 284 292 295 299 310 318 324 331 333 334 338 339 336 339 345 349 346 339 329 329 336 340 339 331 314 301 297 282 236 193 178 183 187 186 181 179 182 185 189 199 217 220 203 193 189 187 184 181 178 177 181 190 197 202 205
202 205 217 248 282 295 305 309 311 319 327 327 323 318 314 310 305 299 295 291 289 291 292 286 276 263 255 258 253 224 210 246 272 282 286 294 308 318 326 335 337 334 335 337 337 341 349 351 346 339 336 337 341 343 340 334 331 330 318 300 276 238 192 173 191 205 201 194 190 188 187 188 197 209 211 202 194 189 186 183 179 173 171 174 179 186 193
209 215 215 225 249 274 298 308 315 328 334 330 327 327 323 320 317 310 305 304 302 301 304 304 296 283 265 252 235 206 208 236 251 269 282 293 309 324 336 342 340 334 334 341 345 349 350 348 344 345 346 345 344 343 339 339 359 16 7 353 334 259 222 214 211 210 211 208 197 189 188 187 185 190 200 203 199 192 186 182 178 174 169 166 164 165 171
205 202 216 235 246 273 316 324 324 333 336 331 331 332 328 326 326 320 312 312 311 306 305 309 310 302 285 258 225 214 225 233 241 263 281 293 315 338 348 349 344 339 343 349 349 349 348 346 348 354 353 346 342 344 347 355 22 33 30 28 28 30 208 213 213 202 196 200 199 193 190 186 181 184 189 192 196 200 194 182 173 168 164 164 164 162 159
216 196 208 226 235 256 328 326 322 331 336 331 329 332 333 331 329 322 317 316 311 307 306 305 300 296 289 268 236 222 225 230 242 262 280 306 342 353 356 355 349 345 351 353 348 347 351 352 353 358 356 348 346 355 6 15 27 35 39 41 39 51 112 174 193 188 183 188 193 191 187 180 176 180 184 181 184 195 191 172 161 159 157 154 152 152 151
266 204 196 225 244 247 315 329 333 342 343 338 336 338 337 331 326 323 320 315 307 302 304 302 291 286 288 282 252 220 216 227 241 261 315 9 7 1 2 1 354 351 1 1 351 349 357 358 355 358 0 355 354 4 13 18 26 36 43 46 47 52 75 117 141 156 170 175 173 169 169 166 163 168 172 167 165 171 168 153 142 138 134 128 125 131 142
288 314 171 238 254 277 328 334 348 355 349 343 341 337 329 327 329 321 310 308 309 308 304 297 291 289 293 291 271 238 228 231 232 74 49 32 15 8 7 5 359 356 10 12 2 357 1 2 359 2 5 2 1 8 12 14 23 35 43 49 53 50 50 65 90 107 125 133 131 133 144 149 147 148 153 152 150 150 145 133 123 116 112 110 111 119 133
248 44 81 180 176 162 333 327 349 6 359 347 341 336 330 330 331 326 321 322 320 310 299 295 295 295 297 304 303 287 263 234 139 78 59 41 28 18 10 6 4 1 9 17 13 7 4 5 6 7 7 6 10 13 13 14 21 31 40 51 58 56 51 54 66 76 83 92 100 107 118 126 127 126 127 130 132 131 126 119 114 110 104 100 101 106 113
79 63 34 74 127 143 172 309 353 16 12 356 343 341 342 340 339 340 338 329 313 301 305 311 314 327 18 35 23 10 28 112 116 94 68 56 43 26 14 10 8 5 5 13 16 12 6 7 13 13 10 14 19 18 14 19 28 32 39 51 59 61 60 60 60 66 78 88 93 95 99 105 108 111 113 114 113 110 107 105 104 103 100 98 98 99 101
77 74 12 36 112 140 155 62 10 27 28 10 353 348 349 349 350 346 337 327 321 327 341 356 22 53 58 55 49 38 42 79 108 99 78 63 47 31 22 16 10 6 5 7 11 12 9 9 16 20 18 21 25 21 17 24 33 36 42 52 56 58 63 65 62 61 69 79 84 84 87 91 93 91 92 95 97 96 95 94 94 94 95 94 94 94 93
80 84 23 20 88 138 156 155 27 30 40 29 15 5 354 350 351 346 339 340 348 355 359 5 19 45 61 65 63 53 42 44 58 71 72 66 51 35 26 19 13 13 13 6 5 10 12 11 17 25 27 28 28 25 24 30 37 39 45 54 58 59 63 66 66 64 66 73 78 80 79 82 85 84 82 80 83 87 90 90 89 88 88 88 88 89 88
84 92 68 36 41 95 138 147 108 41 40 41 29 17 3 355 353 352 352 355 359 1 4 6 10 27 59 66 63 56 46 40 42 47 55 61 55 41 29 20 14 13 14 9 5 9 16 19 22 29 32 33 35 32 30 35 42 43 45 51 56 61 65 67 67 66 68 72 78 82 81 80 82 84 84 82 79 81 87 90 90 89 87 87 87 87 86
86 94 85 58 32 47 92 124 124 67 42 42 38 26 13 3 0 1 4 5 3 2 6 10 11 22 48 63 64 59 52 46 43 43 44 50 53 47 36 27 20 16 17 18 16 17 21 28 33 36 36 38 41 41 38 39 43 45 47 50 53 57 62 65 67 67 69 70 74 80 83 84 84 84 86 86 85 84 85 86 88 89 89 88 88 87 87
123 102 93 75 39 45 66 91 114 105 70 47 46 41 27 14 9 9 8 7 5 6 10 14 15 20 33 48 59 61 57 53 49 46 45 47 49 47 37 26 23 23 24 24 24 24 28 34 39 41 41 43 46 47 48 50 50 46 46 51 56 57 59 62 64 66 69 72 73 75 79 84 86 87 88 89 89 89 87 85 85 87 88 89 89 89 89
65 92 93 70 39 47 50 50 83 111 104 70 51 52 44 32 22 17 11 8 10 12 15 18 22 25 30 41 53 60 62 59 54 49 48 46 44 42 36 24 22 25 28 29 29 29 32 36 40 42 44 47 50 52 56 59 58 52 47 49 55 58 59 59 61 64 68 73 75 76 78 82 85 87 89 89 88 88 88 88 87 88 89 90 91 91 92
77 84 83 63 51 52 43 29 38 85 106 98 70 57 55 48 38 28 19 16 18 20 18 19 28 36 38 42 49 54 58 61 59 54 51 47 42 37 33 26 26 29 32 34 35 35 35 37 40 43 46 49 53 59 64 65 62 57 54 53 55 60 61 61 61 63 66 70 74 77 79 80 80 80 83 84 84 84 86 88 89 90 90 91 92 93 94
94 89 77 65 65 59 43 28 25 47 93 105 90 68 63 61 50 40 30 24 24 28 26 23 27 36 40 41 44 46 48 54 59 59 57 52 47 42 37 32 31 32 33 36 38 39 39 39 41 44 48 51 53 59 66 68 66 63 61 58 58 61 63 62 62 63 64 66 68 72 76 78 79 78 78 79 81 83 84 86 88 90 91 92 93 94 95
102 96 85 81 82 73 51 29 19 24 73 108 103 82 71 67 59 49 42 32 28 33 36 33 31 35 39 40 42 44 45 49 54 58 60 58 51 45 42 40 36 33 34 38 42 42 42 43 43 45 48 52 55 57 61 65 66 66 67 67 67 66 65 64 65 65 65 66 67 69 72 76 79 80 81 82 84 85 86 87 89 91 93 94 94 95 96
101 96 89 90 92 82 62 39 20 17 48 102 110 97 81 73 67 60 53 45 37 36 39 40 40 40 41 39 38 41 47 52 53 53 55 57 52 45 44 45 43 39 41 45 47 46 45 46 49 50 51 54 58 60 61 62 65 67 69 71 73 72 71 70 69 68 68 69 70 71 73 75 78 80 83 86 87 88 89 90 91 92 93 94 94 94 95
99 92 86 82 75 68 60 45 27 22 30 62 102 110 99 85 76 69 63 57 49 44 44 45 46 47 47 45 39 37 42 49 52 51 52 55 55 51 49 49 48 48 49 50 49 47 46 47 50 52 53 56 60 61 61 61 63 66 69 70 72 73 74 75 75 74 74 73 73 74 76 78 79 81 83 86 88 89 90 91 91 92 93 93 94 94 94
100 91 85 79 74 75 73 58 41 33 22 19 62 111 111 100 88 79 73 67 60 54 52 52 51 51 52 52 47 40 37 42 48 48 49 52 55 53 52 52 53 52 52 51 50 49 50 51 52 52 52 54 58 61 61 60 61 63 65 67 69 72 74 76 78 80 80 81 81 81 81 81 82 83 84 84 85 87 88 89 90 91 92 93 93 93 93
117 103 92 83 78 79 77 61 47 38 15 0 16 76 109 114 105 91 80 73 68 63 60 57 56 55 56 58 55 50 46 47 50 46 44 47 52 52 51 52 54 54 54 53 51 50 52 53 52 52 52 53 56 58 59 59 60 62 62 64 66 69 71 74 78 80 82 84 85 86 86 85 85 85 85 84 84 85 86 87 88 89 89 90 90 91 92
118 102 92 89 86 84 80 64 48 35 13 3 14 51 96 112 112 103 92 80 71 66 64 63 62 61 61 62 62 58 53 53 55 51 47 48 50 51 51 51 52 53 55 55 53 50 49 50 50 50 52 53 54 55 56 57 59 60 60 61 62 63 66 69 74 77 79 82 84 86 87 88 88 87 87 86 87 87 87 87 88 89 89 89 89 89 89
106 103 102 104 104 102 98 88 70 51 32 17 19 50 78 86 88 95 100 95 83 73 67 65 65 66 67 67 68 67 62 58 57 55 53 51 51 51 51 52 52 53 56 57 55 53 51 50 50 50 51 53 53 54 54 55 56 56 56 58 59 60 61 63 66 70 74 77 81 83 84 85 87 88 87 87 87 88 88 88 90 91 92 91 90 89 90
112 116 122 125 122 114 106 103 98 83 58 29 17 50 80 83 75 73 83 94 96 89 77 69 70 75 77 76 75 73 70 66 63 60 58 57 55 54 54 55 57 57 58 58 57 56 55 53 53 53 54 54 54 54 55 58 59 59 58 59 60 61 62 64 66 68 72 75 79 81 81 83 86 87 88 88 89 89 89 89 90 91 91 91 90 90 90
112 115 124 132 135 137 137 136 126 105 82 48 27 48 79 88 83 73 72 82 95 100 97 89 83 82 81 78 75 73 71 69 66 63 61 61 59 58 57 58 59 60 61 60 59 59 59 57 57 56 57 57 57 57 58 60 62 62 61 62 63 64 66 68 69 71 73 75 77 78 80 82 84 86 87 89 91 92 91 91 91 91 90 90 91 91 92